Regional Weather Roundup
Issued by NWS

Home | Current Version | Previous Version | Text Only | Print | Product List | Glossary Off
Versions: 1 2 3 4 5 6 7 8 9 10 11 12 13 14 15 16 17 18 19 20 21 22 23 24 25 26 27 28 29 30 31 32 33 34 35 36 37 38 39 40 41 42 43 44 45 46 47 48 49 50

000
ASUS43 KOAX 272202
RWRNE

WEATHER ROUNDUP FOR NEBRASKA
NATIONAL WEATHER SERVICE OMAHA NE
500 PM CDT WED APR 27 2016

NOTES: SATELLITE DATA IS BEING USED TO AUGMENT CLOUD COVER ABOVE
       12000 FEET.
       "FAIR" INDICATES FEW OR NO CLOUDS BELOW 12,000 FEET WITH NO
       SIGNIFICANT WEATHER AND/OR OBSTRUCTIONS TO VISIBILITY.

  * THESE STATIONS DO NOT REPORT WEATHER SUCH AS RAIN...SNOW OR FOG.

NEZ001>004-019>022-054>056-272300-
NEBRASKA PANHANDLE

CITY           SKY/WX    TMP DP  RH WIND       PRES   REMARKS
SCOTTSBLUFF    CLOUDY    46  31  55 NW26G36   29.80R
ALLIANCE       LGT RAIN  43  37  79 N18       29.74S
CHADRON        LGT RAIN  40  37  89 N15       29.79R WCI  32
SIDNEY         CLOUDY    47  30  51 N25G36    29.76S
$$

NEZ057>060-069>072-079>082-272300-
SOUTHWEST NEBRASKA

CITY           SKY/WX    TMP DP  RH WIND       PRES   REMARKS
NORTH PLATTE   LGT RAIN  41  37  86 NW22G28   29.72R
IMPERIAL       CLOUDY    47  35  63 N18G28    29.73R
LEXINGTON      LGT RAIN  40  36  83 NW26G40   29.66R WCI  30
MCCOOK         CLOUDY    49  35  58 NW29G40   29.70R
OGALLALA       CLOUDY    47  35  62 N21G29    29.73S
$$

NEZ005>010-023>029-035>040-094-272300-
NORTH CENTRAL NEBRASKA

CITY           SKY/WX    TMP DP  RH WIND       PRES   REMARKS
VALENTINE      CLOUDY    35  32  88 NW16G25   29.69F WCI  25
AINSWORTH      CLOUDY    36  35  96 NW17      29.68R FOG     WCI  26
BROKEN BOW     LGT RAIN  38  36  92 NW22G31   29.62R FOG     WCI  27
O`NEILL        CLOUDY    44  42  94 N18       29.59R FOG
ORD            LGT RAIN  42  40  92 NW22G29   29.56R FOG
THEDFORD       MIX PCPN  37  35  95 NW17G26   29.72R WCI  27
$$

NEZ041-046>049-061>064-073>077-083>087-272300-
SOUTH CENTRAL NEBRASKA

CITY           SKY/WX    TMP DP  RH WIND       PRES   REMARKS
GRAND ISLAND   LGT RAIN  43  41  93 NW32G41   29.49R FOG
AURORA         DRIZZLE   45  44  96 W36G41    29.45R
HASTINGS       LGT RAIN  41  38  89 W29G38    29.54R FOG
HEBRON         CLOUDY    46  44  91 W18G29    29.56R
HOLDREGE       CLOUDY    42  36  78 NW25G38   29.62R
KEARNEY *      CLOUDY    39  36  87 NW25G41   29.59R WCI  28
YORK           CLOUDY    48  45  87 W20       29.45S
$$

NEZ011>018-030>034-042>045-272300-
NORTHEAST NEBRASKA

CITY           SKY/WX    TMP DP  RH WIND       PRES   REMARKS
NORFOLK        CLOUDY    50  47  89 NE15      29.51R
ALBION         PTSUNNY   54  51  87 E12       29.48R
BLAIR          CLOUDY    57  55  94 NE12      29.47F
COLUMBUS *     CLOUDY    55  43  62 SE12      29.48S
FREMONT        CLOUDY    56  52  85 CALM      29.50S
TEKAMAH        LGT RAIN  55  53  93 E20       29.51F
WAYNE          CLOUDY    49  48  95 E17G23    29.54S
$$

NEZ050>053-065>068-078-088>093-272300-
SOUTHEAST NEBRASKA

CITY           SKY/WX    TMP DP  RH WIND       PRES   REMARKS
LINCOLN        CLOUDY    52  44  74 SW21G26   29.52R
OMAHA EPPLEY   TSTM      56  54  93 E18       29.51R FOG
BEATRICE       CLOUDY    50  45  81 W21G28    29.54S
FALLS CITY     CLOUDY    57  48  72 W24G32    29.55R
NEBRASKA CITY  CLOUDY    54  45  70 SW26G38   29.52R
PLATTSMOUTH    PTSUNNY   56  49  78 SW24G30   29.51R
$$

NEZ044-045-051>053-067-272300-
OMAHA AREA

CITY           SKY/WX    TMP DP  RH WIND       PRES   REMARKS
OMAHA EPPLEY   TSTM      56  54  93 E18       29.51R FOG
BLAIR          CLOUDY    57  55  94 NE12      29.47F
FREMONT        CLOUDY    56  52  85 CALM      29.50S
MILLARD        RAIN      55  51  85 CALM      29.51R
PLATTSMOUTH    PTSUNNY   56  49  78 SW24G30   29.51R
WAHOO          CLOUDY    58  48  67 SW13      29.49F
$$




USA.gov is the U.S. government's official web portal to all federal, state and local government web resources and services.